sat.trackr.live / text

‹ back to catalog

STARLINK-36902

NORAD 68043 · 2026-041D

PAYLOAD ACTIVE UNKNOWN

§ Identity

Operator
Country
US
Launch date
2026-03-02
Launch site
AFETR
Launch vehicle
Mass (kg)
RCS (m²)

Purposes: comms

External: N2YO · Heavens-Above · Gunter

§ Orbital elements

Epoch: 2026-09-20T04:33:33.878016Z

Period
93.85 min
Inclination
53.1609°
Eccentricity
0.0001789
Mean motion
15.34406711 rev/d
Perigee alt
461.5 km
Apogee alt
463.9 km
Semi-major
6,840.8 km
B*
4.9786e-4
RAAN
223.1385°
Arg perigee
75.0403°
Mean anomaly
285.0797°
Rev number
3,121

§ Raw data

STARLINK-369021 68043U 26041D   26263.18997544  .00016485  00000+0  49786-3 0  99902 68043  53.1609 223.1385 0001789  75.0403 285.0797 15.34406711 31212

JSON: /api/v1/satellites/68043 · /tle

For live sub-satellite position, see the globe view (requires WebGL).

§ Visibility from observer

Set your observer location to see the next 7 days of passes ≥ 10°. The values pass through the URL so the page stays shareable.

No JS? Fill the form by hand. The geolocation button needs JavaScript.